Tracking 30994 objects as of 8-Jul-2025
HD Live streaming from Space Station
objects crossing your sky now

DELTA 1 DEB

Track DELTA 1 DEB now!
10-day predictions


NORAD ID: 39095
Int'l Code: 1973-086HH
Perigee: 1,505.4 km
Apogee: 1,599.3 km
Inclination: 102.5 °
Period: 117.0 minutes
Semi major axis: 7923 km
RCS: 0.0177 m2 (small)
Launch date: November 6, 1973
Source: United States (US)
Launch site: AIR FORCE WESTERN TEST RANGE (AFWTR)

Note: This is SATELLITE DEBRIS
Your satellite tracking list
Your tracking list is empty




NASA's NSSDC Master Catalog

Two Line Element Set (TLE):
1 39095U 73086HH  25188.74136747  .00000010  00000-0  47023-3 0  9993
2 39095 102.4952 198.6625 0059265 136.7319 223.8413 12.30956587920511
Source of the keplerian elements: AFSPC